TimeMST,TemperatureF,Dew PointF,Humidity,Sea Level PressureIn,VisibilityMPH,Wind Direction,Wind SpeedMPH,Gust SpeedMPH,PrecipitationIn,Events,Conditions,WindDirDegrees,DateUTC
12:54 AM,35.1,21.9,59,29.86,10.0,North,5.8,-,N/A,,Clear,10,2013-03-07 07:54:00
1:54 AM,32.0,21.0,64,29.86,10.0,NNE,12.7,-,N/A,,Clear,20,2013-03-07 08:54:00
2:54 AM,32.0,19.0,59,29.86,10.0,NNE,9.2,-,N/A,,Clear,30,2013-03-07 09:54:00
3:54 AM,39.0,16.0,39,29.83,10.0,NNW,5.8,-,N/A,,Clear,330,2013-03-07 10:54:00
4:54 AM,33.1,17.1,52,29.89,10.0,NE,9.2,-,N/A,,Clear,40,2013-03-07 11:54:00
5:54 AM,33.1,17.1,52,29.93,10.0,NNW,9.2,-,N/A,,Partly Cloudy,330,2013-03-07 12:54:00
6:54 AM,34.0,17.1,50,29.98,10.0,North,10.4,-,N/A,,Clear,10,2013-03-07 13:54:00
7:54 AM,39.9,18.0,41,29.98,10.0,North,11.5,-,N/A,,Clear,360,2013-03-07 14:54:00
8:54 AM,48.9,21.0,33,29.93,10.0,NE,6.9,-,N/A,,Clear,40,2013-03-07 15:54:00
9:54 AM,57.0,9.0,15,29.88,10.0,Calm,Calm,-,N/A,,Clear,0,2013-03-07 16:54:00
10:54 AM,57.9,9.0,14,29.93,10.0,SSE,16.1,-,N/A,,Clear,160,2013-03-07 17:54:00
11:54 AM,59.0,16.0,19,29.94,10.0,South,16.1,-,N/A,,Clear,170,2013-03-07 18:54:00
12:54 PM,61.0,14.0,16,29.89,10.0,South,12.7,-,N/A,,Clear,170,2013-03-07 19:54:00
1:54 PM,61.0,8.1,12,29.87,10.0,South,8.1,20.7,N/A,,Clear,170,2013-03-07 20:54:00
2:54 PM,63.0,6.1,11,29.85,10.0,SSE,17.3,25.3,N/A,,Partly Cloudy,160,2013-03-07 21:54:00
3:54 PM,64.9,6.1,10,29.79,10.0,South,12.7,19.6,N/A,,Partly Cloudy,190,2013-03-07 22:54:00
4:04 PM,64.4,3.2,9,29.91,10.0,SSW,20.7,27.6,N/A,,Partly Cloudy,200,2013-03-07 23:04:00
4:54 PM,61.0,6.1,11,29.84,10.0,SSE,13.8,-,N/A,,Partly Cloudy,160,2013-03-07 23:54:00
5:54 PM,54.0,10.9,18,29.88,10.0,SE,10.4,-,N/A,,Partly Cloudy,140,2013-03-08 00:54:00
6:54 PM,51.1,10.0,19,29.91,10.0,SE,8.1,-,N/A,,Clear,130,2013-03-08 01:54:00
7:54 PM,46.9,12.0,24,29.92,10.0,ENE,3.5,-,N/A,,Clear,60,2013-03-08 02:54:00
8:54 PM,46.0,12.0,25,29.89,10.0,NNE,3.5,-,N/A,,Clear,30,2013-03-08 03:54:00
9:54 PM,43.0,19.0,38,29.90,10.0,ENE,8.1,-,N/A,,Clear,70,2013-03-08 04:54:00
10:54 PM,39.0,21.9,50,29.90,10.0,Variable,5.8,-,N/A,,Clear,0,2013-03-08 05:54:00
11:54 PM,37.0,24.1,59,29.90,10.0,North,6.9,-,N/A,,Clear,360,2013-03-08 06:54:00